Flag for Japan Weather past 2 weeks in Himeji, Japan

Now
81 °F

Scattered showers. Passing clouds.


Feels Like: 84 °F
Forecast: 72 / 84 °F
Wind: 10 mph from East

Location: Osaka International Airport

Current Time: Aug 23, 2014 at 10:50:00 PM

Latest Report: Aug 23, 2014 at 8:00 PM


Visibility: N/A

Pressure: 29.86 "Hg

Humidity: 70%

Dew point: 70 °F

Location of HimejiLocation

Historic Weather in Himeji — Graph

°F

Himeji temperature yesterday

Maximum temperature yesterday: 88 °F (at 10:00 AM)
Minimum temperature yesterday: 81 °F (at 8:00 PM)
Average temperature yesterday: 84 °F

Past Weeks' High & Low Weather Summary

 TemperatureHumidityPressure
High91 °F (Aug 14, 3:00 PM)100% (Aug 10, 11:00 AM)29.98 "Hg (Aug 10, 11:00 AM)
Low72 °F (Aug 8, 8:00 PM)49% (Aug 20, 4:00 PM)29.00 "Hg (Aug 10, 11:00 AM)
Average83 °F74%29.75 "Hg
* Reported Aug 8 8:00 PM — Aug 23 8:00 PM, Himeji, Weather by CustomWeather, © 2014

Note: Actual official high and low records may vary slightly from our data, if they occured in-between our weather recording intervals... More about our weather records

Advertising

Himeji weather history for previous 24 hours

 ConditionsComfort  
Time TempWeatherWind HumidityBarometerVisibility
8:00 PM
Aug 23
81 °FScattered showers. Passing clouds.10 mph70%29.86 "HgN/A
7:00 PM84 °FPartly cloudy.3 mph70%29.86 "HgN/A
6:00 PM84 °FBroken clouds.8 mph70%29.83 "HgN/A
5:00 PM88 °FPartly sunny.8 mph55%29.80 "HgN/A
4:00 PM90 °FScattered clouds.7 mph52%29.80 "HgN/A
3:00 PM90 °FPassing clouds.6 mph52%29.80 "HgN/A
2:00 PM90 °FPassing clouds.7 mph52%29.80 "HgN/A
1:00 PM88 °FPartly sunny.7 mph59%29.83 "HgN/A
12:00 PM86 °FSprinkles. Broken clouds.7 mph66%29.86 "HgN/A
11:00 AM88 °FBroken clouds.3 mph59%29.86 "HgN/A
10:00 AM82 °FSprinkles. Broken clouds.2 mph79%29.89 "HgN/A
9:00 AM84 °FSprinkles. Broken clouds.2 mph70%29.89 "HgN/A
8:00 AM81 °FBroken clouds.1 mph79%29.86 "HgN/A
7:00 AM79 °FPartly sunny.2 mph89%29.86 "HgN/A
6:00 AM77 °FScattered showers. Broken clouds.6 mph94%29.86 "HgN/A
5:00 AM79 °FPartly cloudy.5 mph89%29.86 "HgN/A
Weather by CustomWeather, © 2014

See weather overviewHow to use our weather pages